• In Belarus
  • List of Countries
  • For 7 days
  • Water Temperature
  • Weather Map
  • Weather Widgets
  • user-avatar
    Login

    Hourly Weather Choybalsan

    Today, 16 September, Monday

    Time Temperature Precipitation Wind Pressure Humidity
    00:00 +5°C° 0 mm 4 mps 694 mmHg 44%
    01:00 +5°C° 0 mm 4 mps 694 mmHg 45%
    02:00 +5°C° 0 mm 4 mps 694 mmHg 45%
    03:00 +4°C° 0 mm 4 mps 694 mmHg 49%
    04:00 +4°C° 0 mm 4 mps 694 mmHg 53%
    05:00 +3°C° 0 mm 4 mps 693 mmHg 57%
    06:00 +5°C° 0 mm 4 mps 694 mmHg 55%
    07:00 +6°C° 0 mm 4 mps 694 mmHg 52%
    08:00 +8°C° 0 mm 4 mps 694 mmHg 49%
    09:00 +11°C° 0 mm 4 mps 694 mmHg 44%
    10:00 +14°C° 0 mm 5 mps 694 mmHg 39%
    11:00 +16°C° 0 mm 5 mps 694 mmHg 34%
    12:00 +17°C° 0 mm 6 mps 693 mmHg 33%
    13:00 +19°C° 0 mm 6 mps 693 mmHg 32%
    14:00 +20°C° 0 mm 7 mps 692 mmHg 30%
    15:00 +20°C° 0 mm 6 mps 691 mmHg 33%
    16:00 +20°C° 0 mm 5 mps 691 mmHg 36%
    17:00 +19°C° 0 mm 4 mps 690 mmHg 38%
    18:00 +17°C° 0.3 mm 4 mps 690 mmHg 48%
    19:00 +14°C° 0.3 mm 4 mps 690 mmHg 57%
    20:00 +11°C° 0.3 mm 4 mps 690 mmHg 67%
    21:00 +10°C° 0.2 mm 3 mps 690 mmHg 73%
    22:00 +9°C° 0.2 mm 2 mps 691 mmHg 79%
    23:00 +9°C° 0.2 mm 1 mps 691 mmHg 85%

    Tomorrow, 17 September, Tuesday

    Time Temperature Precipitation Wind Pressure Humidity
    00:00 +8°C° 0 mm 3 mps 691 mmHg 83%
    01:00 +6°C° 0 mm 4 mps 692 mmHg 81%
    02:00 +5°C° 0 mm 6 mps 693 mmHg 80%
    03:00 +4°C° 0.1 mm 6 mps 693 mmHg 79%
    04:00 +3°C° 0.1 mm 6 mps 694 mmHg 79%
    05:00 +3°C° 0.1 mm 7 mps 695 mmHg 78%
    06:00 +1°C° 0 mm 8 mps 696 mmHg 71%
    07:00 +1°C° 0 mm 9 mps 696 mmHg 63%
    08:00 +1°C° 0 mm 9 mps 697 mmHg 55%
    09:00 +2°C° 0 mm 9 mps 697 mmHg 47%
    10:00 +3°C° 0 mm 9 mps 698 mmHg 40%
    11:00 +6°C° 0 mm 9 mps 699 mmHg 32%
    12:00 +7°C° 0 mm 8 mps 699 mmHg 30%
    13:00 +7°C° 0 mm 8 mps 699 mmHg 28%
    14:00 +9°C° 0 mm 7 mps 699 mmHg 26%
    15:00 +9°C° 0 mm 7 mps 699 mmHg 27%
    16:00 +9°C° 0 mm 6 mps 699 mmHg 28%
    17:00 +9°C° 0 mm 5 mps 699 mmHg 29%
    18:00 +8°C° 0 mm 5 mps 699 mmHg 32%
    19:00 +6°C° 0 mm 4 mps 699 mmHg 36%
    20:00 +5°C° 0 mm 3 mps 699 mmHg 39%
    21:00 +4°C° 0 mm 3 mps 699 mmHg 41%
    22:00 +4°C° 0 mm 4 mps 699 mmHg 43%
    23:00 +4°C° 0 mm 4 mps 699 mmHg 45%

    Day after tomorrow, 18 September, Wednesday

    Time Temperature Precipitation Wind Pressure Humidity
    00:00 +3°C° 0 mm 4 mps 699 mmHg 48%
    01:00 +3°C° 0 mm 4 mps 699 mmHg 51%
    02:00 +3°C° 0 mm 4 mps 700 mmHg 54%
    03:00 +3°C° 0 mm 4 mps 700 mmHg 57%
    04:00 +3°C° 0 mm 4 mps 700 mmHg 60%
    05:00 +1°C° 0 mm 4 mps 700 mmHg 63%
    06:00 +4°C° 0 mm 3 mps 700 mmHg 61%
    07:00 +5°C° 0 mm 3 mps 700 mmHg 59%
    08:00 +7°C° 0 mm 3 mps 700 mmHg 57%
    09:00 +9°C° 0 mm 3 mps 700 mmHg 52%
    10:00 +11°C° 0 mm 3 mps 700 mmHg 48%
    11:00 +13°C° 0 mm 3 mps 700 mmHg 43%
    12:00 +16°C° 0 mm 3 mps 699 mmHg 40%
    13:00 +17°C° 0 mm 4 mps 699 mmHg 37%
    14:00 +19°C° 0 mm 4 mps 698 mmHg 34%
    15:00 +19°C° 0 mm 3 mps 698 mmHg 36%
    16:00 +19°C° 0 mm 2 mps 697 mmHg 38%
    17:00 +20°C° 0 mm 1 mps 697 mmHg 40%
    18:00 +18°C° 0 mm 1 mps 696 mmHg 43%
    19:00 +15°C° 0 mm 2 mps 695 mmHg 45%
    20:00 +13°C° 0 mm 2 mps 695 mmHg 48%
    21:00 +13°C° 0 mm 2 mps 695 mmHg 48%
    22:00 +13°C° 0 mm 2 mps 695 mmHg 49%
    23:00 +12°C° 0 mm 3 mps 694 mmHg 49%

    19 September, Thursday

    Time Temperature Precipitation Wind Pressure Humidity
    00:00 +12°C° 0 mm 3 mps 694 mmHg 52%
    01:00 +12°C° 0 mm 2 mps 694 mmHg 54%
    02:00 +12°C° 0 mm 2 mps 693 mmHg 57%
    03:00 +12°C° 0 mm 2 mps 693 mmHg 57%
    04:00 +11°C° 0 mm 3 mps 693 mmHg 57%
    05:00 +11°C° 0 mm 3 mps 692 mmHg 57%
    06:00 +12°C° 0 mm 3 mps 693 mmHg 56%
    07:00 +12°C° 0 mm 3 mps 693 mmHg 54%
    08:00 +14°C° 0 mm 2 mps 694 mmHg 53%
    09:00 +16°C° 0 mm 3 mps 694 mmHg 49%
    10:00 +17°C° 0 mm 3 mps 695 mmHg 44%
    11:00 +19°C° 0 mm 4 mps 695 mmHg 40%
    12:00 +19°C° 0 mm 4 mps 695 mmHg 40%
    13:00 +20°C° 0 mm 4 mps 695 mmHg 39%
    14:00 +20°C° 0 mm 4 mps 694 mmHg 39%
    15:00 +20°C° 0 mm 4 mps 695 mmHg 39%
    16:00 +20°C° 0 mm 4 mps 695 mmHg 39%
    17:00 +19°C° 0 mm 3 mps 695 mmHg 39%
    18:00 +17°C° 0 mm 3 mps 695 mmHg 44%
    19:00 +15°C° 0 mm 2 mps 695 mmHg 50%
    20:00 +12°C° 0 mm 1 mps 695 mmHg 55%
    21:00 +13°C° 0 mm 2 mps 695 mmHg 56%
    22:00 +12°C° 0 mm 3 mps 696 mmHg 57%
    23:00 +12°C° 0 mm 3 mps 696 mmHg 58%

    20 September, Friday

    Time Temperature Precipitation Wind Pressure Humidity
    00:00 +12°C° 0.1 mm 3 mps 696 mmHg 62%
    01:00 +11°C° 0.1 mm 3 mps 696 mmHg 67%
    02:00 +10°C° 0.1 mm 2 mps 696 mmHg 71%
    03:00 +9°C° 0 mm 2 mps 696 mmHg 74%
    04:00 +9°C° 0 mm 2 mps 696 mmHg 77%
    05:00 +8°C° 0 mm 2 mps 697 mmHg 81%
    06:00 +9°C° 0 mm 3 mps 697 mmHg 77%
    07:00 +10°C° 0 mm 3 mps 697 mmHg 73%
    08:00 +10°C° 0 mm 4 mps 698 mmHg 69%
    09:00 +12°C° 0 mm 4 mps 698 mmHg 60%
    10:00 +14°C° 0 mm 4 mps 698 mmHg 52%
    11:00 +16°C° 0 mm 5 mps 698 mmHg 43%
    12:00 +16°C° 0 mm 5 mps 698 mmHg 40%
    13:00 +17°C° 0 mm 5 mps 698 mmHg 36%
    14:00 +19°C° 0 mm 5 mps 698 mmHg 33%
    15:00 +18°C° 0 mm 4 mps 698 mmHg 34%
    16:00 +18°C° 0 mm 4 mps 698 mmHg 35%
    17:00 +18°C° 0 mm 3 mps 698 mmHg 37%
    18:00 +16°C° 0 mm 2 mps 698 mmHg 42%
    19:00 +14°C° 0 mm 2 mps 697 mmHg 48%
    20:00 +12°C° 0 mm 1 mps 697 mmHg 53%
    21:00 +11°C° 0 mm 1 mps 697 mmHg 55%
    22:00 +11°C° 0 mm 1 mps 697 mmHg 56%
    23:00 +10°C° 0 mm 2 mps 697 mmHg 57%

    21 September, Saturday

    Time Temperature Precipitation Wind Pressure Humidity
    00:00 +9°C° 0 mm 2 mps 697 mmHg 58%
    01:00 +9°C° 0 mm 2 mps 697 mmHg 60%
    02:00 +9°C° 0 mm 3 mps 697 mmHg 61%
    03:00 +9°C° 0 mm 3 mps 697 mmHg 61%
    04:00 +9°C° 0 mm 3 mps 697 mmHg 62%
    05:00 +8°C° 0 mm 3 mps 697 mmHg 62%
    06:00 +9°C° 0 mm 3 mps 697 mmHg 61%
    07:00 +10°C° 0 mm 3 mps 698 mmHg 60%
    08:00 +11°C° 0 mm 4 mps 698 mmHg 59%
    09:00 +13°C° 0 mm 4 mps 698 mmHg 53%
    10:00 +17°C° 0 mm 4 mps 698 mmHg 47%
    11:00 +19°C° 0 mm 4 mps 698 mmHg 41%
    12:00 +20°C° 0 mm 4 mps 698 mmHg 38%
    13:00 +21°C° 0 mm 4 mps 698 mmHg 36%
    14:00 +22°C° 0 mm 4 mps 697 mmHg 33%
    15:00 +22°C° 0 mm 3 mps 698 mmHg 35%
    16:00 +21°C° 0 mm 2 mps 698 mmHg 37%
    17:00 +21°C° 0 mm 2 mps 698 mmHg 39%
    18:00 +19°C° 0 mm 1 mps 697 mmHg 47%
    19:00 +16°C° 0 mm 1 mps 697 mmHg 56%
    20:00 +13°C° 0 mm 1 mps 697 mmHg 64%
    21:00 +13°C° 0 mm 1 mps 697 mmHg 63%
    22:00 +13°C° 0 mm 1 mps 697 mmHg 62%
    23:00 +13°C° 0 mm 2 mps 697 mmHg 61%
    Show more